Regional Weather Roundup
Issued by NWS

Home | Current Version | Previous Version | Graphics & Text | Print | Product List | Glossary Off
Versions: 1 2 3 4 5 6 7 8 9 10 11 12 13 14 15 16 17 18 19 20 21 22 23 24 25 26 27 28 29 30 31 32 33 34 35 36 37 38 39 40 41 42 43 44 45 46 47 48 49 50

000
ASUS43 KDTX 241110
RWRMI
MICHIGAN HOURLY REGIONAL WEATHER ROUNDUP
NATIONAL WEATHER SERVICE DETROIT/PONTIAC MI
ISSUED BY NATIONAL WEATHER SERVICE GRAND RAPIDS MI
700 AM EDT THU MAY 24 2018

NOTE: "FAIR" INDICATES FEW OR NO CLOUDS BELOW 12,000 FEET WITH NO
SIGNIFICANT WEATHER AND/OR OBSTRUCTION TO VISIBILITY.

MIZ047>049-052>055-059>063-066>070-074>076-081>083-241200-
SOUTHEAST LOWER MICHIGAN

CITY           SKY/WX    TMP DP  RH WIND       PRES   REMARKS
ADRIAN         FAIR      55  53  93 CALM      30.24R
ALMA           FAIR      50  50 100 CALM      30.23R
ANN ARBOR      FAIR      48  48 100 CALM      30.23R FOG
BAD AXE        FAIR      49  48  97 CALM      30.22R
DETROIT CITY   FAIR      57  53  86 CALM      30.22R
DETROIT        FAIR      59  51  75 CALM      30.22R
FLINT          FAIR      50  49  96 CALM      30.22R
GROSSE ILE     FAIR      56  53  88 CALM      30.21S
HILLSDALE      FAIR      54  50  87 CALM      30.24R
HOWELL         FAIR      52  50  93 CALM      30.23R

CITY           SKY/WX    TMP DP  RH WIND       PRES   REMARKS
JACKSON        FAIR      52  50  93 CALM      30.24R
LANSING        FAIR      54  52  93 CALM      30.24R
MASON          FAIR      53  51  94 CALM      30.24R
MONROE         FAIR      54  52  94 CALM      30.22R
MT. CLEMENS    FAIR      53  53 100 CALM      30.21R
PONTIAC        FAIR      55  54  96 CALM      30.21R
PORT HOPE        N/A     60  53  77 W6        30.19R
PORT HURON     FAIR      46  46 100 CALM      30.22R
TRI CITIES     FAIR      57  54  89 W3        30.22R
YPSILANTI      FAIR      57  52  83 W3        30.23R
$$
MIZ043>046-050>051-056>058-064>065-071>073-077>080-241200-
SOUTHWEST LOWER MICHIGAN

CITY           SKY/WX    TMP DP  RH WIND       PRES   REMARKS
BATTLE CREEK   FAIR      54  53  97 CALM      30.23R
BENTON HARBOR  FAIR      52  50  93 E5        30.20R
BIG RAPIDS     FAIR      48  47  94 CALM      30.22R
COLDWATER        N/A     52  52 100 CALM      30.23R FOG
HOLLAND        FAIR      55  53  93 S5        30.22R
GRAND RAPIDS   FAIR      53  52  96 S5        30.22R
KALAMAZOO      FAIR      53  51  93 CALM      30.23R
MARSHALL       FAIR      51  49  95 CALM      30.23R FOG
MOUNT PLEASANT FAIR      55  55  99 CALM      30.22R
MUSKEGON       FAIR      52  49  89 CALM      30.22R
STURGIS        FAIR      56  53  89 CALM      30.22R
$$
MIZ016>042-241200-
NORTHERN LOWER MICHIGAN

CITY           SKY/WX    TMP DP  RH WIND       PRES   REMARKS
ALPENA         FAIR      53  51  93 CALM      30.19R
BEAVER ISLAND  FAIR      59  46  63 SW7       30.16S
BELLAIRE       FAIR      47  46  97 CALM      30.20R
CADILLAC       FAIR      44  43  99 CALM      30.22R
CHARLEVOIX     FAIR      52  52 100 E5        30.21R
GAYLORD        FAIR      53  47  79 SW3       30.20S
HOUGHTON LAKE  FAIR      48  47  96 E3        30.22R
MANISTEE       FAIR      46  46 100 CALM      30.20R
OSCODA         FAIR      51  47  86 CALM      30.19R
PELLSTON       FAIR      47  45  93 CALM      30.18R
TRAVERSE CITY  FAIR      52  48  86 CALM      30.18R
LUDINGTON      FAIR      46  46 100 CALM      30.20R
$$
MIZ007>008-015-241200-
EASTERN UPPER MICHIGAN

CITY           SKY/WX    TMP DP  RH WIND       PRES   REMARKS
KINROSS        FAIR      52  49  89 SW6       30.16R
MACKINAC ISLAN FAIR      53  53  99 SW8       30.16S
NEWBERRY       FAIR      49  48  97 S9        30.14S
S. S. MARIE    FAIR      53  51  93 CALM      30.15R
$$
MIZ004>006-011>014-085-241200-
CENTRAL UPPER MICHIGAN

CITY           SKY/WX    TMP DP  RH WIND       PRES   REMARKS
MANISTIQUE     FAIR      45  44  94 S6        30.15R
ESCANABA       FAIR      50  49  96 CALM      30.15R
MENOMINEE      FAIR      56  54  93 CALM      30.17R
SAWYER-GWINN   CLEAR     54  46  76 CALM      30.14S
$$
MIZ001>003-009>011-084-241200-
WESTERN UPPER MICHIGAN

CITY           SKY/WX    TMP DP  RH WIND       PRES   REMARKS
IRON MOUNTAIN  FAIR      56  53  90 CALM      30.14R
HOUGHTON       FAIR      62  54  74 CALM      30.09S
COPPER HARBOR    N/A     45  39  79 CALM      30.09S
IRONWOOD       MOCLDY    66  60  81 S8        30.10F
$$

ABBREVIATIONS USED IN REMARKS
   TC - TEMPERATURE IN CELSIUS
  WCI - WIND CHILL INDEX
   HX - HEAT INDEX
  VSB - VISIBILITY




USA.gov is the U.S. government's official web portal to all federal, state and local government web resources and services.